Showing default

CBERS-4, 40336

Orbit data source: Space-Track

CBERS-4, 40336 is a Chinese payload satellite in SSO that was launched on Sun, 07 Dec 2014 UTC via a CHANG ZHENG 4B launch vehicle from the Taiyaun Space Center, China (TSC). Payload-class satellites include a variety of spacecraft equipped with specific instruments for various scientific and technological missions. These include communications satellites like Starlink; space stations such as the ISS; scientific satellites like the Hubble; Earth observation satellites from companies like Planet Labs, Umbra, and HawkEye 360; GPS; miniature CubeSats for education and research; and military/defense satellites.

Loading next visibility...
Identifier
40336, 2014-079A
Orbit
SSO
Country
Flag of CNCN / PRC
Related business
Manufacturer
CAST/INPE
Mission
Operational Civil Imaging
Bus & Motor
ZY, AOCS 20N
Mass
2,100 kg wet, ~1,900 kg dry
Launch date (UTC)
2014-12-07 (11 years ago)
Launch vehicle
CHANG ZHENG 4B
Launch site
Taiyaun Space Center, China (TSC)
Object type
Payload
Rocket body
Debris
Shape & HBR
Box + 1 Pan, 4.5 m
Radar Cross Section
22.196 m², Large (>1 m²)

Expand to show TLE details & history
Last TLE update: 11 hours ago

TLE from 11 hours ago
0 CBERS-4
1 40336U 14079A   26062.16080934 -.00000036  00000-0  20465-5 0  9996
2 40336  98.3503 122.3829 0000809  54.2828 305.8433 14.35410103588749
Epoch: 2026-03-03T03:51Z
TLE epoch observation values (Epoch: 2026-03-03T03:51:33.926Z)
Latitude
-0.00008°
Longitude
-96.4523°
Altitude
776.312 km
Speed
7.466 km/s
True Right ascension
08h 09m 31s
True Declination
0° 00' 00"
Sunlit
Object was in full shadow at epoch
Visualization orbit readout
Latitude
Unknown
Longitude
Unknown
Altitude
Unknown
Speed
Unknown
Apparent Right ascension
Unknown
Apparent Declination
Unknown
Sunlit
N/A
Visualization observer readout
Local Sidereal Time
18:53:51
Azimuth
Unknown
Elevation
Unknown
Doppler factor
Unknown
Orbital elements
Apogee altitude
771.403 km
Perigee altitude
770.247 km
Semi-major axis
7,148.962 km
Eccentricity
0.00008
Inclination
98.3503°
RAAN
122.3829°
Arg. of periapsis
54.2828°
True anomaly
305.83578°
Mean anomaly
305.8433°
Eccentric anomaly
305.83954°
Mean motion
3.5907 °/min
Orbital period
100.26 mins
BSTAR
0.0000020465
Loading maneuver chart data...
Computing Atmospheric mass density...
Loading historical data...
Loading historical data...
Loading historical data...
Loading historical data...
Loading historical data...
Loading historical data...
Loading historical data...
Other satellites on launch #79 in the year 2014 (2014-12-07 UTC)

Documentation

Showing up to 5 results
|